STARLINK-4763, 53805

Orbit data source: Space-Track

STARLINK-4763, 53805 is a payload satellite owned by SpaceX/Seattle (US) in LEO that was launched on Sun, 11 Sep 2022 UTC via an FALCON 9 launch vehicle from the Air Force Eastern Test Range (AFETR). Payload-class satellites include a variety of spacecraft equipped with specific instruments for various scientific and technological missions. These include communications satellites like Starlink; space stations such as the ISS; scientific satellites like the Hubble; Earth observation satellites from companies like Planet Labs, Umbra, and HawkEye 360; GPS; miniature CubeSats for education and research; and military/defense satellites.

Loading next visibility...
Identifier
53805, 2022-111AJ
Orbit
LEO
Country
Flag of USUS
Related business
Manufacturer
SpaceX/Seattle
Mission
Operational Commercial Communications
Bus & Motor
STARLINK, Unknown motor
Mass
305 kg wet, ~290 kg dry
Launch date (UTC)
2022-09-11 (3 years ago)
Launch vehicle
FALCON 9
Launch site
Air Force Eastern Test Range (AFETR)
Object type
Payload
Rocket body
Debris
Shape & HBR
Box + 1 Pan, 10.1 m
Radar Cross Section
13.562 m², Large (>1 m²)

Expand to show TLE details & history
Last TLE update: 1 day ago

TLE from 1 day ago
0 STARLINK-4763
1 53805U 22111AJ  25306.16948203 -.00000166  00000-0  76752-5 0  9993
2 53805  53.2153 101.7108 0001435  85.9350 274.1806 15.08836499174770
Epoch: 2025-11-02T04:04Z
TLE epoch observation values (Epoch: 2025-11-02T04:04:03.247Z)
Latitude
-0.00003°
Longitude
-0.99182°
Altitude
540.579 km
Speed
7.593 km/s
True Right ascension
06h 46m 50s
True Declination
0° 00' 00"
Sunlit
Object was in full shadow at epoch
Visualization orbit readout
Latitude
Unknown
Longitude
Unknown
Altitude
Unknown
Speed
Unknown
Apparent Right ascension
Unknown
Apparent Declination
Unknown
Sunlit
N/A
Visualization observer readout
Local Sidereal Time
07:13:20
Azimuth
Unknown
Elevation
Unknown
Doppler factor
Unknown
Orbital elements
Apogee altitude
540.992 km
Perigee altitude
539.007 km
Semi-major axis
6,918.136 km
Eccentricity
0.00014
Inclination
53.2153°
RAAN
101.7108°
Arg. of periapsis
85.935°
True anomaly
274.1642°
Mean anomaly
274.1806°
Eccentric anomaly
274.1724°
Mean motion
3.77189 °/min
Orbital period
95.44 mins
BSTAR
0.0000076752
Loading maneuver chart data...
Computing Atmospheric mass density...
Loading historical data...
Loading historical data...
Loading historical data...
Loading historical data...
Loading historical data...
Loading historical data...
Loading historical data...

Documentation

Showing up to 5 results
|